Content
SEND FEEDBACK

Daily
Averages
Monthly
Summary
United States of America

DRYDEN, TEXAS


Home > North America > United States > Texas
Elevation: 2200 feet     Latitude: 30 03N     Longitude: 102 07W

WEATHER
 
SELECT A DAY
Number of Records: 129,570;   Date Range: 6/15/99 - 9/28/14
 
SHARE

PRINT THIS DATA

[ ← Previous Day ]
WEATHER ALMANAC - JANUARY 31, 2013
[ Next Day → ]
[ °C ]   °F
Weather ElementAverageHighLow
Temperature50.3 °F64.9 °F (2:53 pm)35.1 °F (2:53 am)
Dewpoint15.7 °F21 °F (2:53 am)9 °F (11:53 am)
Humidity29.9 %57 % (2:53 am)11 % (4:53 pm)
Barometer30.17 in30.22 in (8:53 am)30.09 in (4:53 pm)
Wind Speed4.9 mph10.4 mph (10:53 am)
Weather ElementAverage
Wind DirectionS (180 °)

Weather ElementTotal
Precipitation---
Heating Degree Days15 (Base 65)
Averaged from 23 records on January 31, 2013
WEATHER CONDITIONS BREAKOUT
WIND DIRECTION BREAKOUT
WEATHER BY HOUR - JANUARY 31, 2013
[ °C ]   °F
Local TimeTemperatureDewpointHumidityBarometerVisibilityWind DirectionWind SpeedGust SpeedPrecipitationEventsConditions
1:53 AM39.0 °F19.0 °F45 %30.16 inWest (280°)4.6 mph
2:53 AM35.1 °F21.0 °F57 %30.16 inWest (260°)3.5 mph
3:53 AM36.0 °F19.0 °F50 %30.17 inWSW (250°)5.8 mph
4:53 AM37.9 °F18.0 °F45 %30.14 inWest (280°)8.1 mph
5:53 AM35.1 °F19.0 °F52 %30.16 inNW (310°)5.8 mph
6:53 AM35.1 °F19.0 °F52 %30.17 inWNW (290°)4.6 mph
7:53 AM35.1 °F18.0 °F50 %30.19 inWNW (290°)4.6 mph
8:53 AM42.1 °F19.9 °F41 %30.22 inWest (260°)3.5 mph
9:53 AM52.0 °F12.9 °F21 %30.22 inWSW (240°)9.2 mph
10:53 AM57.0 °F12.0 °F17 %30.22 inWSW (240°)10.4 mph
11:53 AM59.0 °F9.0 °F14 %30.22 inSW (230°)5.8 mph
12:53 PM62.1 °F9.0 °F12 %30.18 inCalm
1:53 PM63.0 °F9.0 °F12 %30.14 inVariable3.5 mph
2:53 PM64.9 °F10.0 °F12 %30.12 inSouth (190°)6.9 mph
3:53 PM64.0 °F9.0 °F12 %30.11 inSSW (210°)4.6 mph
4:53 PM64.9 °F9.0 °F11 %30.09 inSSW (210°)4.6 mph
5:53 PM63.0 °F12.0 °F14 %30.13 inSSW (200°)3.5 mph
6:53 PM57.9 °F17.1 °F20 %30.15 inESE (110°)4.6 mph
7:53 PM55.0 °F18.0 °F23 %30.19 inSE (130°)4.6 mph
8:53 PM51.1 °F19.9 °F29 %30.19 inEast (90°)3.5 mph
9:53 PM50.0 °F19.9 °F31 %30.19 inCalm
10:53 PM48.0 °F21.0 °F34 %30.21 inNNE (30°)4.6 mph
11:53 PM48.9 °F21.0 °F33 %30.19 inNE (40°)5.8 mph
Hourly data recorded from K6R6, located miles away from Dryden, Texas







STORIES FROM OUR PARTNERS